Location: Spring Creek
(38.2870°N, 100.2160°W)
Time: 08:11:11
(UTC+00:00)

ADEOS II - Pass Details

Date: 08 May 2021
Orbit: 799 x 801 km, 98.6° (Epoch: 21 June)

Event Time Altitude Azimuth Distance (km) Brightness Sun altitude
Rises 08:58:53 0° 11° (N) 3,315 6.3 -25.4°
Reaches altitude 10° 09:01:13 10° 11° (N) 2,380 5.4 -25.1°
Maximum altitude 09:06:29 80° 285° (WNW) 817 2.0 -24.4°
Enters shadow 09:07:11 66° 220° (SW) 869 1.9 -24.3°
